When you browse on this site, cookies collect data to enhance your experience and personalize the content and advertising you see.
Visit our Privacy Policy to learn more. By continuing to use the site, you agree to this use of cookies and data.
  • In Sweden
  • List of Countries
  • For 7 days
  • Water Temperature
  • Satellite Maps
  • Weather Map
  • Weather Widgets
  • user-avatar
    Login

    Hourly Weather Staraya Nyavka

    Today, 20 March, Wednesday

    Time Temperature Precipitation Wind Pressure Humidity
    00:00 -1°C° 0 mm 5 mps 753 mmHg 96%
    01:00 -1°C° 0 mm 4 mps 752 mmHg 96%
    02:00 -1°C° 0 mm 4 mps 752 mmHg 96%
    03:00 0°C° 0 mm 3 mps 752 mmHg 96%
    04:00 0°C° 0 mm 3 mps 752 mmHg 96%
    05:00 0°C° 0 mm 3 mps 752 mmHg 96%
    06:00 -1°C° 0 mm 3 mps 751 mmHg 96%
    07:00 0°C° 0 mm 3 mps 751 mmHg 95%
    08:00 -1°C° 0 mm 4 mps 751 mmHg 94%
    09:00 -1°C° 0 mm 4 mps 751 mmHg 93%
    10:00 0°C° 0 mm 4 mps 751 mmHg 92%
    11:00 +1°C° 0 mm 4 mps 751 mmHg 92%
    12:00 +2°C° 0 mm 3 mps 751 mmHg 91%
    13:00 +2°C° 0 mm 3 mps 751 mmHg 91%
    14:00 +3°C° 0 mm 3 mps 751 mmHg 91%
    15:00 +3°C° 0 mm 3 mps 750 mmHg 92%
    16:00 +2°C° 0.5 mm 3 mps 750 mmHg 93%
    17:00 +1°C° 0.5 mm 3 mps 750 mmHg 95%
    18:00 +2°C° 0.5 mm 2 mps 750 mmHg 97%
    19:00 +2°C° 0.4 mm 2 mps 750 mmHg 97%
    20:00 +1°C° 0.4 mm 2 mps 750 mmHg 97%
    21:00 +1°C° 0.4 mm 2 mps 750 mmHg 97%
    22:00 +1°C° 0.1 mm 2 mps 750 mmHg 97%
    23:00 +1°C° 0.1 mm 2 mps 750 mmHg 97%

    Tomorrow, 21 March, Thursday

    Time Temperature Precipitation Wind Pressure Humidity
    00:00 +1°C° 0.1 mm 2 mps 749 mmHg 96%
    01:00 +1°C° 0.2 mm 2 mps 749 mmHg 95%
    02:00 +1°C° 0.2 mm 2 mps 749 mmHg 95%
    03:00 +1°C° 0.2 mm 2 mps 749 mmHg 94%
    04:00 -1°C° 0 mm 2 mps 749 mmHg 95%
    05:00 -1°C° 0 mm 2 mps 749 mmHg 95%
    06:00 -2°C° 0 mm 2 mps 748 mmHg 95%
    07:00 -1°C° 0 mm 2 mps 748 mmHg 93%
    08:00 -1°C° 0 mm 2 mps 748 mmHg 91%
    09:00 +1°C° 0 mm 2 mps 748 mmHg 89%
    10:00 +2°C° 0 mm 2 mps 748 mmHg 84%
    11:00 +2°C° 0 mm 2 mps 748 mmHg 78%
    12:00 +2°C° 0 mm 3 mps 748 mmHg 73%
    13:00 +2°C° 0 mm 3 mps 748 mmHg 73%
    14:00 +2°C° 0 mm 3 mps 747 mmHg 73%
    15:00 +2°C° 0 mm 3 mps 747 mmHg 72%
    16:00 +1°C° 0 mm 3 mps 747 mmHg 76%
    17:00 +2°C° 0 mm 2 mps 747 mmHg 79%
    18:00 +1°C° 0 mm 2 mps 747 mmHg 82%
    19:00 +1°C° 0 mm 2 mps 747 mmHg 82%
    20:00 -1°C° 0 mm 2 mps 747 mmHg 83%
    21:00 +1°C° 0 mm 1 mps 747 mmHg 83%
    22:00 +1°C° 0 mm 1 mps 747 mmHg 83%
    23:00 +1°C° 0 mm 1 mps 746 mmHg 84%

    Day after tomorrow, 22 March, Friday

    Time Temperature Precipitation Wind Pressure Humidity
    00:00 +1°C° 0 mm 1 mps 746 mmHg 84%
    01:00 +1°C° 0 mm 1 mps 746 mmHg 86%
    02:00 +1°C° 0 mm 1 mps 746 mmHg 87%
    03:00 +1°C° 0 mm 1 mps 746 mmHg 89%
    04:00 +1°C° 0 mm 1 mps 746 mmHg 90%
    05:00 0°C° 0 mm 1 mps 746 mmHg 91%
    06:00 0°C° 0 mm 1 mps 746 mmHg 92%
    07:00 +1°C° 0 mm 1 mps 746 mmHg 90%
    08:00 +1°C° 0 mm 1 mps 746 mmHg 88%
    09:00 +2°C° 0 mm 1 mps 747 mmHg 85%
    10:00 +1°C° 0 mm 2 mps 746 mmHg 81%
    11:00 +2°C° 0 mm 2 mps 746 mmHg 77%
    12:00 +3°C° 0 mm 2 mps 746 mmHg 73%
    13:00 +3°C° 0 mm 2 mps 745 mmHg 73%
    14:00 +2°C° 0 mm 3 mps 745 mmHg 72%
    15:00 +2°C° 0 mm 3 mps 745 mmHg 72%
    16:00 +2°C° 0 mm 3 mps 744 mmHg 75%
    17:00 +1°C° 0 mm 3 mps 744 mmHg 79%
    18:00 +1°C° 0 mm 3 mps 744 mmHg 82%
    19:00 0°C° 0.1 mm 3 mps 743 mmHg 84%
    20:00 0°C° 0.1 mm 3 mps 743 mmHg 86%
    21:00 -1°C° 0.1 mm 4 mps 742 mmHg 88%
    22:00 -1°C° 0.3 mm 4 mps 741 mmHg 89%
    23:00 -1°C° 0.3 mm 5 mps 741 mmHg 91%

    23 March, Saturday

    Time Temperature Precipitation Wind Pressure Humidity
    00:00 -1°C° 0.3 mm 5 mps 740 mmHg 93%
    01:00 -2°C° 0.1 mm 6 mps 740 mmHg 92%
    02:00 -2°C° 0.1 mm 6 mps 739 mmHg 90%
    03:00 -3°C° 0.1 mm 6 mps 739 mmHg 88%
    04:00 -3°C° 0 mm 6 mps 739 mmHg 88%
    05:00 -4°C° 0 mm 6 mps 740 mmHg 87%
    06:00 -5°C° 0 mm 6 mps 740 mmHg 86%
    07:00 -4°C° 0 mm 6 mps 740 mmHg 84%
    08:00 -4°C° 0 mm 7 mps 740 mmHg 82%
    09:00 -4°C° 0 mm 7 mps 741 mmHg 80%
    10:00 -3°C° 0.1 mm 7 mps 741 mmHg 79%
    11:00 -2°C° 0.1 mm 7 mps 741 mmHg 78%
    12:00 -2°C° 0.1 mm 7 mps 741 mmHg 76%
    13:00 -1°C° 0.1 mm 6 mps 741 mmHg 74%
    14:00 -1°C° 0.1 mm 6 mps 742 mmHg 72%
    15:00 +1°C° 0.1 mm 6 mps 742 mmHg 70%
    16:00 0°C° 0 mm 5 mps 742 mmHg 73%
    17:00 0°C° 0 mm 4 mps 742 mmHg 76%
    18:00 0°C° 0 mm 3 mps 743 mmHg 79%
    19:00 -1°C° 0 mm 3 mps 743 mmHg 81%
    20:00 -1°C° 0 mm 3 mps 743 mmHg 84%
    21:00 -2°C° 0 mm 2 mps 743 mmHg 87%
    22:00 -2°C° 0 mm 2 mps 742 mmHg 87%
    23:00 -2°C° 0 mm 3 mps 742 mmHg 87%

    24 March, Sunday

    Time Temperature Precipitation Wind Pressure Humidity
    00:00 -2°C° 0 mm 3 mps 741 mmHg 88%
    01:00 -2°C° 0 mm 3 mps 741 mmHg 85%
    02:00 -2°C° 0 mm 4 mps 740 mmHg 82%
    03:00 -2°C° 0 mm 5 mps 739 mmHg 79%
    04:00 -2°C° 0.3 mm 5 mps 738 mmHg 83%
    05:00 -3°C° 0.3 mm 6 mps 737 mmHg 87%
    06:00 -3°C° 0.3 mm 6 mps 736 mmHg 91%
    07:00 -2°C° 0.4 mm 6 mps 736 mmHg 93%
    08:00 0°C° 0.4 mm 5 mps 736 mmHg 94%
    09:00 +1°C° 0.4 mm 5 mps 735 mmHg 96%
    10:00 +1°C° 0 mm 6 mps 736 mmHg 85%
    11:00 +2°C° 0 mm 7 mps 736 mmHg 75%
    12:00 +1°C° 0 mm 8 mps 736 mmHg 64%
    13:00 +1°C° 0 mm 8 mps 736 mmHg 61%
    14:00 +1°C° 0 mm 8 mps 736 mmHg 58%
    15:00 +1°C° 0 mm 8 mps 736 mmHg 55%
    16:00 0°C° 0.1 mm 7 mps 736 mmHg 58%
    17:00 -1°C° 0.1 mm 6 mps 736 mmHg 61%
    18:00 0°C° 0.1 mm 5 mps 736 mmHg 64%
    19:00 -1°C° 0 mm 5 mps 736 mmHg 66%
    20:00 -1°C° 0 mm 5 mps 736 mmHg 69%
    21:00 -2°C° 0 mm 5 mps 736 mmHg 71%
    22:00 -3°C° 0 mm 6 mps 736 mmHg 71%
    23:00 -3°C° 0 mm 6 mps 736 mmHg 72%

    25 March, Monday

    Time Temperature Precipitation Wind Pressure Humidity
    00:00 -3°C° 0 mm 6 mps 736 mmHg 72%
    01:00 -3°C° 0 mm 6 mps 736 mmHg 73%
    02:00 -3°C° 0 mm 6 mps 736 mmHg 74%
    03:00 -4°C° 0 mm 7 mps 736 mmHg 74%
    04:00 -4°C° 0 mm 7 mps 736 mmHg 72%
    05:00 -4°C° 0 mm 7 mps 736 mmHg 70%
    06:00 -4°C° 0 mm 7 mps 736 mmHg 68%
    07:00 -4°C° 0 mm 7 mps 737 mmHg 65%
    08:00 -5°C° 0 mm 8 mps 737 mmHg 62%
    09:00 -4°C° 0 mm 8 mps 737 mmHg 59%
    10:00 -4°C° 0 mm 8 mps 737 mmHg 55%
    11:00 -2°C° 0 mm 8 mps 738 mmHg 52%
    12:00 -2°C° 0 mm 7 mps 738 mmHg 49%
    13:00 -1°C° 0 mm 7 mps 738 mmHg 49%
    14:00 0°C° 0 mm 7 mps 738 mmHg 48%
    15:00 +1°C° 0 mm 6 mps 738 mmHg 48%
    16:00 +1°C° 0 mm 5 mps 738 mmHg 52%
    17:00 0°C° 0 mm 4 mps 738 mmHg 57%
    18:00 0°C° 0 mm 3 mps 738 mmHg 61%
    19:00 0°C° 0 mm 3 mps 738 mmHg 63%
    20:00 0°C° 0 mm 3 mps 738 mmHg 64%
    21:00 -1°C° 0 mm 3 mps 738 mmHg 66%
    22:00 -2°C° 0 mm 4 mps 738 mmHg 65%
    23:00 -1°C° 0 mm 4 mps 737 mmHg 64%
    Show more